Regional Weather Roundup
Issued by NWS Midland/Odessa, TX

Skip options and go directly to product.
Home | Oldest Version | Previous Version | Current Version | All | Text Only | Save Text | Print | Product List | Glossary On

Skip product version selection by date and time.   
961
ASUS44 KMAF 272210
RWRMAF
MIDLAND AREA WEATHER ROUNDUP
NATIONAL WEATHER SERVICE MIDLAND TX
500 PM CDT MON APR 27 2015

...IN SOUTHWEST TEXAS AND SOUTHEAST NEW MEXICO...

CITY           SKY/WX    TMP DP  RH WIND       PRES   REMARKS
ALPINE         CLOUDY    66  37  34 N15G25    29.97R
ANDREWS        PTSUNNY   62  38  41 N24       29.91R
ARTESIA        CLOUDY    50  46  87 N26G33    30.05R
BIG SPRING     CLOUDY    66  40  38 NW20G26   29.86R
CARLSBAD       PTSUNNY   57  37  47 N31G38    30.01R
DRYDEN           N/A     82  33  17 NW15G23   29.76S
FORT STOCKTON  PTSUNNY   70  43  37 N31G41    29.88R
GUAD PASS      CLOUDY    51  36  56 NE26G39   30.00R
HOBBS          PTSUNNY   50  37  62 NW28G33   29.98R
MARFA          CLOUDY    64  34  32 NW12G17   29.95S
MIDLAND AIRPK  PTSUNNY   64  40  41 NW16G29   29.88R
MIDLAND INTL   CLOUDY    63  41  44 N25G35    29.87R
ODESSA         CLOUDY    62  39  42 NW23G30   29.89R
PECOS          PTSUNNY   67  40  36 NW26G33   29.91S
PRESIDIO       FAIR      79  31  17 NW13G18   29.84F
SEMINOLE       PTSUNNY   55  38  51 N24G30    29.95R
SNYDER         PTSUNNY   64  47  53 NW20G26   29.84R
WINK           PTSUNNY   66  38  35 NW24      29.91S
$$
...OTHER STATIONS IN TEXAS...

CITY           SKY/WX    TMP DP  RH WIND       PRES   REMARKS
ABILENE        PTSUNNY   73  49  42 N16       29.77S
AMARILLO       LGT SNOW  38  37  97 N25G37    30.02R FOG     WCI  27
AUSTIN         MOSUNNY   83  60  45 NW12      29.66F
BROWNSVILLE    CLOUDY    87  67  51 N14G21    29.60F
CORPUS CHRISTI PTSUNNY   89  65  44 N12       29.61F
DALLAS FTW     CLOUDY    67  57  70 E14       29.73S
DEL RIO        SUNNY     88  33  14 NW25G31   29.66F
EL PASO        MOSUNNY   71  30  21 N16G25    29.93S
HOUSTON INT    PTSUNNY   77  65  66 NE12      29.65F
LUBBOCK        RAIN      47  44  90 N20       29.90S FOG     WCI  40
SAN ANGELO     PTSUNNY   78  43  28 NW16      29.74S
SAN ANTONIO    MOSUNNY   86  48  26 NW9       29.66F
WACO           PTSUNNY   78  64  61 NE7       29.69F
WICHITA FALLS  NOT AVBL
$$
...OTHER LOCATIONS IN NEW MEXICO...

CITY           SKY/WX    TMP DP  RH WIND       PRES   REMARKS
ALAMAGORDO     CLOUDY    63  32  31 N23       29.96R
ALBUQUERQUE    PTSUNNY   59  37  44 SE12      30.05F
CANNON AFB     LGT RAIN  39  37  93 N26G41    30.03R WCI  28
CLOVIS         CLOUDY    41  36  81 N32G41    30.04R WCI  29
HOLLOMAN AFB   NOT AVBL
ROSWELL        CLOUDY    50  39  66 N25G33    30.06R
RUIDOSO        LGT RAIN  45  32  61 N14G23    30.12R WCI  38
SANTA FE       CLOUDY    56  37  49 S10G18    30.04F
TRUTH OR CONSE PTSUNNY   60  38  43 NE18G28   30.03R
TUCUMCARI      LGT RAIN  43  39  86 NE22G33   30.08R FOG     WCI  34
$$

USA.gov is the U.S. government's official web portal to all federal, state and local government web resources and services.